STARLINK-3829, 52348

Orbit data source: Space-Track

STARLINK-3829, 52348 is a payload satellite owned by SpaceX/Seattle (US) in LEO that was launched on Fri, 29 Apr 2022 UTC via an FALCON 9 launch vehicle from the Air Force Eastern Test Range (AFETR). Payload-class satellites include a variety of spacecraft equipped with specific instruments for various scientific and technological missions. These include communications satellites like Starlink; space stations such as the ISS; scientific satellites like the Hubble; Earth observation satellites from companies like Planet Labs, Umbra, and HawkEye 360; GPS; miniature CubeSats for education and research; and military/defense satellites.

Loading next visibility...
Identifier
52348, 2022-045T
Orbit
LEO
Country
Flag of USUS
Related business
Manufacturer
SpaceX/Seattle
Mission
Operational Commercial Communications
Bus & Motor
STARLINK, Unknown motor
Mass
297 kg wet, ~275 kg dry
Launch date (UTC)
2022-04-29 (4 years ago)
Launch vehicle
FALCON 9
Launch site
Air Force Eastern Test Range (AFETR)
Object type
Payload
Rocket body
Debris
Shape & HBR
Box + 1 Pan, 10.1 m
Radar Cross Section
11.087 m², Large (>1 m²)

Expand to show TLE details & history
Last TLE update: 17 hours ago

TLE from 17 hours ago
0 STARLINK-3829
1 52348U 22045T   25348.91267952  .00000763  00000-0  66032-4 0  9995
2 52348  53.2154 219.6992 0001652  84.0399 276.0782 15.08839682202982
Epoch: 2025-12-14T21:54Z
TLE epoch observation values (Epoch: 2025-12-14T21:54:15.510Z)
Latitude
0.00003°
Longitude
167.31581°
Altitude
540.521 km
Speed
7.593 km/s
True Right ascension
14h 38m 47s
True Declination
0° 00' 00"
Sunlit
Object was in daylight at epoch
Visualization orbit readout
Latitude
Unknown
Longitude
Unknown
Altitude
Unknown
Speed
Unknown
Apparent Right ascension
Unknown
Apparent Declination
Unknown
Sunlit
N/A
Visualization observer readout
Local Sidereal Time
13:20:31
Azimuth
Unknown
Elevation
Unknown
Doppler factor
Unknown
Orbital elements
Apogee altitude
541.132 km
Perigee altitude
538.847 km
Semi-major axis
6,918.127 km
Eccentricity
0.00017
Inclination
53.2154°
RAAN
219.6992°
Arg. of periapsis
84.0399°
True anomaly
276.05938°
Mean anomaly
276.0782°
Eccentric anomaly
276.06879°
Mean motion
3.7719 °/min
Orbital period
95.44 mins
BSTAR
0.000066032
Loading maneuver chart data...
Computing Atmospheric mass density...
Loading historical data...
Loading historical data...
Loading historical data...
Loading historical data...
Loading historical data...
Loading historical data...
Loading historical data...

Documentation

Showing up to 5 results
|